When you browse on this site, cookies collect data to enhance your experience and personalize the content and advertising you see.
Visit our Privacy Policy to learn more. By continuing to use the site, you agree to this use of cookies and data.
EN

Hourly Weather Alcamo

Today, 12 August, Wednesday

Time Temperature Precipitation Wind Pressure Humidity
00:00 +25°C° 0 mm 1 mps 747 mmHg 69%
01:00 +25°C° 0 mm 1 mps 747 mmHg 67%
02:00 +25°C° 0 mm 1 mps 747 mmHg 68%
03:00 +25°C° 0 mm 1 mps 747 mmHg 68%
04:00 +25°C° 0 mm 1 mps 747 mmHg 68%
05:00 +25°C° 0 mm 1 mps 747 mmHg 64%
06:00 +26°C° 0 mm 1 mps 748 mmHg 61%
07:00 +27°C° 0 mm 1 mps 748 mmHg 57%
08:00 +29°C° 0 mm 1 mps 748 mmHg 50%
09:00 +31°C° 0 mm 1 mps 748 mmHg 44%
10:00 +33°C° 0 mm 1 mps 749 mmHg 37%
11:00 +35°C° 0 mm 2 mps 749 mmHg 36%
12:00 +35°C° 0 mm 3 mps 749 mmHg 36%
13:00 +36°C° 0 mm 3 mps 749 mmHg 36%
14:00 +35°C° 0 mm 3 mps 748 mmHg 38%
15:00 +35°C° 0 mm 3 mps 748 mmHg 39%
16:00 +34°C° 0 mm 4 mps 748 mmHg 41%
17:00 +33°C° 0 mm 3 mps 748 mmHg 48%
18:00 +30°C° 0 mm 3 mps 748 mmHg 54%
19:00 +28°C° 0 mm 2 mps 748 mmHg 60%
20:00 +28°C° 0 mm 2 mps 748 mmHg 61%
21:00 +27°C° 0 mm 2 mps 748 mmHg 63%
22:00 +26°C° 0 mm 2 mps 748 mmHg 64%
23:00 +26°C° 0 mm 2 mps 748 mmHg 60%

Tomorrow, 13 August, Thursday

Time Temperature Precipitation Wind Pressure Humidity
00:00 +26°C° 0 mm 2 mps 748 mmHg 55%
01:00 +26°C° 0 mm 2 mps 748 mmHg 51%
02:00 +26°C° 0 mm 2 mps 748 mmHg 50%
03:00 +26°C° 0 mm 2 mps 748 mmHg 50%
04:00 +25°C° 0 mm 2 mps 748 mmHg 49%
05:00 +27°C° 0 mm 1 mps 748 mmHg 47%
06:00 +28°C° 0 mm 1 mps 748 mmHg 44%
07:00 +29°C° 0 mm 1 mps 748 mmHg 41%
08:00 +31°C° 0 mm 1 mps 749 mmHg 36%
09:00 +34°C° 0 mm 2 mps 749 mmHg 32%
10:00 +36°C° 0 mm 2 mps 749 mmHg 28%
11:00 +36°C° 0 mm 3 mps 749 mmHg 30%
12:00 +36°C° 0 mm 3 mps 749 mmHg 32%
13:00 +36°C° 0 mm 4 mps 749 mmHg 33%
14:00 +36°C° 0 mm 3 mps 749 mmHg 33%
15:00 +36°C° 0 mm 3 mps 748 mmHg 33%
16:00 +36°C° 0 mm 3 mps 748 mmHg 33%
17:00 +34°C° 0 mm 2 mps 748 mmHg 36%
18:00 +31°C° 0 mm 2 mps 747 mmHg 40%
19:00 +30°C° 0 mm 1 mps 747 mmHg 43%
20:00 +29°C° 0 mm 1 mps 747 mmHg 43%
21:00 +29°C° 0 mm 1 mps 747 mmHg 43%
22:00 +28°C° 0 mm 1 mps 747 mmHg 43%
23:00 +27°C° 0 mm 2 mps 747 mmHg 44%

Day after tomorrow, 14 August, Friday

Time Temperature Precipitation Wind Pressure Humidity
00:00 +27°C° 0 mm 2 mps 747 mmHg 45%
01:00 +27°C° 0 mm 3 mps 747 mmHg 46%
02:00 +26°C° 0 mm 3 mps 747 mmHg 49%
03:00 +26°C° 0 mm 3 mps 747 mmHg 52%
04:00 +26°C° 0 mm 3 mps 746 mmHg 54%
05:00 +27°C° 0 mm 3 mps 747 mmHg 51%
06:00 +28°C° 0 mm 3 mps 747 mmHg 49%
07:00 +29°C° 0 mm 4 mps 747 mmHg 46%
08:00 +33°C° 0 mm 4 mps 747 mmHg 41%
09:00 +35°C° 0 mm 3 mps 747 mmHg 36%
10:00 +38°C° 0 mm 3 mps 747 mmHg 31%
11:00 +38°C° 0 mm 4 mps 747 mmHg 31%
12:00 +40°C° 0 mm 4 mps 746 mmHg 31%
13:00 +40°C° 0 mm 4 mps 746 mmHg 31%
14:00 +40°C° 0 mm 4 mps 746 mmHg 32%
15:00 +38°C° 0 mm 4 mps 746 mmHg 33%
16:00 +38°C° 0 mm 4 mps 745 mmHg 34%
17:00 +36°C° 0 mm 3 mps 745 mmHg 40%
18:00 +34°C° 0 mm 3 mps 745 mmHg 46%
19:00 +30°C° 0 mm 2 mps 745 mmHg 53%
20:00 +29°C° 0 mm 2 mps 745 mmHg 58%
21:00 +28°C° 0 mm 2 mps 745 mmHg 64%
22:00 +27°C° 0 mm 2 mps 746 mmHg 69%
23:00 +27°C° 0 mm 2 mps 746 mmHg 67%

15 August, Saturday

Time Temperature Precipitation Wind Pressure Humidity
00:00 +27°C° 0 mm 1 mps 745 mmHg 66%
01:00 +27°C° 0 mm 1 mps 745 mmHg 64%
02:00 +27°C° 0 mm 1 mps 745 mmHg 64%
03:00 +26°C° 0 mm 1 mps 745 mmHg 64%
04:00 +26°C° 0 mm 1 mps 744 mmHg 64%
05:00 +27°C° 0 mm 2 mps 744 mmHg 63%
06:00 +28°C° 0 mm 2 mps 745 mmHg 61%
07:00 +29°C° 0 mm 2 mps 745 mmHg 60%
08:00 +31°C° 0 mm 3 mps 745 mmHg 51%
09:00 +34°C° 0 mm 3 mps 745 mmHg 43%
10:00 +36°C° 0 mm 4 mps 746 mmHg 34%
11:00 +37°C° 0 mm 4 mps 746 mmHg 32%
12:00 +38°C° 0 mm 4 mps 746 mmHg 29%
13:00 +38°C° 0 mm 4 mps 746 mmHg 26%
14:00 +38°C° 0 mm 4 mps 745 mmHg 28%
15:00 +37°C° 0 mm 4 mps 745 mmHg 29%
16:00 +36°C° 0 mm 4 mps 745 mmHg 30%
17:00 +34°C° 0 mm 3 mps 744 mmHg 37%
18:00 +31°C° 0 mm 3 mps 744 mmHg 44%
19:00 +29°C° 0 mm 2 mps 744 mmHg 50%
20:00 +28°C° 0 mm 1 mps 744 mmHg 52%
21:00 +27°C° 0 mm 1 mps 744 mmHg 54%
22:00 +27°C° 0 mm 1 mps 745 mmHg 55%
23:00 +27°C° 0 mm 1 mps 744 mmHg 51%

16 August, Sunday

Time Temperature Precipitation Wind Pressure Humidity
00:00 +27°C° 0 mm 1 mps 744 mmHg 46%
01:00 +27°C° 0 mm 2 mps 744 mmHg 42%
02:00 +27°C° 0 mm 2 mps 744 mmHg 41%
03:00 +27°C° 0 mm 2 mps 744 mmHg 40%
04:00 +26°C° 0 mm 2 mps 744 mmHg 40%
05:00 +28°C° 0 mm 2 mps 744 mmHg 35%
06:00 +30°C° 0 mm 2 mps 744 mmHg 31%
07:00 +31°C° 0 mm 1 mps 744 mmHg 27%
08:00 +34°C° 0 mm 2 mps 745 mmHg 25%
09:00 +36°C° 0 mm 2 mps 745 mmHg 22%
10:00 +39°C° 0 mm 2 mps 745 mmHg 20%
11:00 +39°C° 0 mm 3 mps 745 mmHg 21%
12:00 +39°C° 0 mm 3 mps 745 mmHg 21%
13:00 +40°C° 0 mm 4 mps 745 mmHg 22%
14:00 +39°C° 0 mm 3 mps 745 mmHg 22%
15:00 +38°C° 0 mm 3 mps 744 mmHg 23%
16:00 +38°C° 0 mm 3 mps 744 mmHg 24%
17:00 +36°C° 0 mm 2 mps 744 mmHg 29%
18:00 +33°C° 0 mm 1 mps 744 mmHg 33%
19:00 +31°C° 0 mm 1 mps 744 mmHg 38%
20:00 +30°C° 0 mm 1 mps 744 mmHg 39%
21:00 +30°C° 0 mm 1 mps 744 mmHg 39%
22:00 +29°C° 0 mm 1 mps 744 mmHg 40%
23:00 +29°C° 0 mm 1 mps 744 mmHg 41%

17 August, Monday

Time Temperature Precipitation Wind Pressure Humidity
00:00 +28°C° 0 mm 2 mps 744 mmHg 42%
01:00 +28°C° 0 mm 2 mps 744 mmHg 43%
02:00 +28°C° 0 mm 2 mps 744 mmHg 45%
03:00 +28°C° 0 mm 2 mps 744 mmHg 47%
04:00 +27°C° 0 mm 2 mps 744 mmHg 49%
05:00 +29°C° 0 mm 2 mps 744 mmHg 47%
06:00 +30°C° 0 mm 2 mps 745 mmHg 44%
07:00 +31°C° 0 mm 2 mps 745 mmHg 42%
08:00 +34°C° 0 mm 2 mps 745 mmHg 37%
09:00 +37°C° 0 mm 3 mps 745 mmHg 32%
10:00 +39°C° 0 mm 3 mps 745 mmHg 27%
11:00 +41°C° 0 mm 4 mps 745 mmHg 26%
12:00 +42°C° 0 mm 4 mps 745 mmHg 25%
13:00 +43°C° 0 mm 5 mps 745 mmHg 23%
14:00 +41°C° 0 mm 4 mps 745 mmHg 28%
15:00 +38°C° 0 mm 3 mps 745 mmHg 32%
16:00 +37°C° 0 mm 2 mps 745 mmHg 36%
17:00 +35°C° 0 mm 2 mps 745 mmHg 40%
18:00 +34°C° 0 mm 2 mps 745 mmHg 44%
19:00 +31°C° 0 mm 2 mps 745 mmHg 48%
20:00 +31°C° 0 mm 2 mps 745 mmHg 46%
21:00 +31°C° 0 mm 3 mps 745 mmHg 45%
22:00 +30°C° 0 mm 3 mps 745 mmHg 43%
23:00 +30°C° 0 mm 3 mps 745 mmHg 44%
Show more